When you browse on this site, cookies collect data to enhance your experience and personalize the content and advertising you see.
Visit our Privacy Policy to learn more. By continuing to use the site, you agree to this use of cookies and data.
  • In Hungary
  • List of Countries
  • For 7 days
  • Water Temperature
  • Weather Map
  • News
  • Weather Widgets
  • user-avatar
    Login

    Hourly Weather Amos

    Today, 8 December, Sunday

    Time Temperature Precipitation Wind Pressure Humidity
    00:00 -12°C° 0 mm 5 mps 735 mmHg 92%
    01:00 -11°C° 0 mm 5 mps 734 mmHg 90%
    02:00 -10°C° 0.1 mm 6 mps 733 mmHg 90%
    03:00 -9°C° 0.1 mm 6 mps 732 mmHg 89%
    04:00 -8°C° 0.1 mm 7 mps 731 mmHg 89%
    05:00 -8°C° 0.6 mm 7 mps 730 mmHg 90%
    06:00 -8°C° 0.6 mm 8 mps 729 mmHg 90%
    07:00 -8°C° 0.6 mm 8 mps 728 mmHg 91%
    08:00 -7°C° 0.4 mm 8 mps 727 mmHg 89%
    09:00 -6°C° 0.4 mm 8 mps 727 mmHg 87%
    10:00 -5°C° 0.4 mm 8 mps 726 mmHg 85%
    11:00 -5°C° 1.2 mm 8 mps 726 mmHg 87%
    12:00 -4°C° 1.2 mm 8 mps 725 mmHg 89%
    13:00 -4°C° 1.2 mm 8 mps 725 mmHg 91%
    14:00 -3°C° 0.7 mm 7 mps 725 mmHg 93%
    15:00 -3°C° 0.7 mm 6 mps 725 mmHg 94%
    16:00 -2°C° 0.7 mm 5 mps 725 mmHg 96%
    17:00 -2°C° 0.6 mm 5 mps 726 mmHg 96%
    18:00 -4°C° 0.6 mm 5 mps 727 mmHg 96%
    19:00 -3°C° 0.6 mm 4 mps 728 mmHg 96%
    20:00 -8°C° 0.3 mm 4 mps 728 mmHg 95%
    21:00 -11°C° 0.3 mm 4 mps 728 mmHg 94%
    22:00 -15°C° 0.3 mm 3 mps 729 mmHg 93%
    23:00 -16°C° 0 mm 3 mps 730 mmHg 93%

    Tomorrow, 9 December, Monday

    Time Temperature Precipitation Wind Pressure Humidity
    00:00 -17°C° 0 mm 3 mps 730 mmHg 93%
    01:00 -18°C° 0 mm 3 mps 731 mmHg 93%
    02:00 -19°C° 0.1 mm 3 mps 731 mmHg 94%
    03:00 -21°C° 0.1 mm 3 mps 732 mmHg 94%
    04:00 -21°C° 0.1 mm 3 mps 732 mmHg 95%
    05:00 -22°C° 0.1 mm 3 mps 732 mmHg 95%
    06:00 -22°C° 0.1 mm 3 mps 732 mmHg 95%
    07:00 -23°C° 0.1 mm 3 mps 732 mmHg 95%
    08:00 -22°C° 0.1 mm 3 mps 732 mmHg 95%
    09:00 -22°C° 0.1 mm 3 mps 731 mmHg 95%
    10:00 -22°C° 0.1 mm 3 mps 731 mmHg 94%
    11:00 -21°C° 0.2 mm 3 mps 730 mmHg 94%
    12:00 -19°C° 0.2 mm 3 mps 729 mmHg 94%
    13:00 -17°C° 0.2 mm 3 mps 728 mmHg 93%
    14:00 -17°C° 0.4 mm 3 mps 726 mmHg 94%
    15:00 -18°C° 0.4 mm 4 mps 725 mmHg 94%
    16:00 -17°C° 0.4 mm 4 mps 724 mmHg 94%
    17:00 -17°C° 0.8 mm 4 mps 723 mmHg 94%
    18:00 -17°C° 0.8 mm 4 mps 721 mmHg 94%
    19:00 -16°C° 0.8 mm 4 mps 720 mmHg 94%
    20:00 -15°C° 0.9 mm 3 mps 719 mmHg 94%
    21:00 -15°C° 0.9 mm 3 mps 717 mmHg 95%
    22:00 -14°C° 0.9 mm 3 mps 716 mmHg 95%
    23:00 -15°C° 1.2 mm 3 mps 715 mmHg 95%

    Day after tomorrow, 10 December, Tuesday

    Time Temperature Precipitation Wind Pressure Humidity
    00:00 -15°C° 1.2 mm 3 mps 714 mmHg 95%
    01:00 -16°C° 1.2 mm 4 mps 713 mmHg 95%
    02:00 -17°C° 0.9 mm 4 mps 714 mmHg 94%
    03:00 -18°C° 0.9 mm 4 mps 714 mmHg 94%
    04:00 -19°C° 0.9 mm 4 mps 715 mmHg 93%
    05:00 -20°C° 0.1 mm 4 mps 716 mmHg 93%
    06:00 -22°C° 0.1 mm 4 mps 718 mmHg 93%
    07:00 -23°C° 0.1 mm 4 mps 719 mmHg 93%
    08:00 -22°C° 0.1 mm 4 mps 721 mmHg 92%
    09:00 -22°C° 0.1 mm 5 mps 722 mmHg 91%
    10:00 -21°C° 0.1 mm 5 mps 723 mmHg 90%
    11:00 -21°C° 0 mm 5 mps 724 mmHg 90%
    12:00 -22°C° 0 mm 4 mps 725 mmHg 90%
    13:00 -22°C° 0 mm 4 mps 726 mmHg 90%
    14:00 -22°C° 0 mm 4 mps 728 mmHg 91%
    15:00 -22°C° 0 mm 3 mps 729 mmHg 92%
    16:00 -22°C° 0 mm 3 mps 730 mmHg 93%
    17:00 -21°C° 0 mm 2 mps 731 mmHg 94%
    18:00 -24°C° 0 mm 2 mps 732 mmHg 96%
    19:00 -25°C° 0 mm 2 mps 732 mmHg 98%
    20:00 -26°C° 0 mm 2 mps 732 mmHg 98%
    21:00 -26°C° 0 mm 2 mps 733 mmHg 97%
    22:00 -23°C° 0 mm 1 mps 733 mmHg 97%
    23:00 -24°C° 0 mm 1 mps 733 mmHg 98%

    11 December, Wednesday

    Time Temperature Precipitation Wind Pressure Humidity
    00:00 -24°C° 0 mm 1 mps 733 mmHg 98%
    01:00 -24°C° 0 mm 1 mps 733 mmHg 98%
    02:00 -24°C° 0 mm 1 mps 733 mmHg 98%
    03:00 -23°C° 0 mm 1 mps 733 mmHg 98%
    04:00 -23°C° 0 mm 1 mps 733 mmHg 98%
    05:00 -23°C° 0 mm 1 mps 733 mmHg 98%
    06:00 -23°C° 0 mm 1 mps 734 mmHg 98%
    07:00 -23°C° 0 mm 1 mps 734 mmHg 98%
    08:00 -22°C° 0 mm 1 mps 734 mmHg 97%
    09:00 -21°C° 0 mm 1 mps 734 mmHg 96%
    10:00 -21°C° 0 mm 1 mps 735 mmHg 96%
    11:00 -20°C° 0 mm 1 mps 735 mmHg 92%
    12:00 -21°C° 0 mm 2 mps 735 mmHg 88%
    13:00 -20°C° 0 mm 2 mps 735 mmHg 85%
    14:00 -21°C° 0 mm 2 mps 735 mmHg 87%
    15:00 -23°C° 0 mm 2 mps 736 mmHg 89%
    16:00 -25°C° 0 mm 2 mps 736 mmHg 92%
    17:00 -25°C° 0 mm 2 mps 737 mmHg 93%
    18:00 -26°C° 0 mm 2 mps 738 mmHg 94%
    19:00 -27°C° 0 mm 2 mps 739 mmHg 95%
    20:00 -27°C° 0 mm 2 mps 740 mmHg 95%
    21:00 -27°C° 0 mm 2 mps 740 mmHg 95%
    22:00 -26°C° 0 mm 2 mps 741 mmHg 95%
    23:00 -27°C° 0 mm 2 mps 742 mmHg 95%

    12 December, Thursday

    Time Temperature Precipitation Wind Pressure Humidity
    00:00 -28°C° 0 mm 2 mps 742 mmHg 96%
    01:00 -29°C° 0 mm 2 mps 743 mmHg 96%
    02:00 -30°C° 0 mm 2 mps 744 mmHg 96%
    03:00 -30°C° 0 mm 2 mps 744 mmHg 95%
    04:00 -31°C° 0 mm 2 mps 745 mmHg 95%
    05:00 -31°C° 0 mm 2 mps 746 mmHg 95%
    06:00 -32°C° 0 mm 2 mps 746 mmHg 96%
    07:00 -32°C° 0 mm 2 mps 747 mmHg 96%
    08:00 -30°C° 0 mm 2 mps 748 mmHg 95%
    09:00 -29°C° 0 mm 2 mps 748 mmHg 94%
    10:00 -27°C° 0 mm 2 mps 749 mmHg 94%
    11:00 -25°C° 0 mm 2 mps 749 mmHg 93%
    12:00 -23°C° 0 mm 2 mps 749 mmHg 92%
    13:00 -20°C° 0 mm 2 mps 749 mmHg 90%
    14:00 -21°C° 0 mm 2 mps 749 mmHg 92%
    15:00 -21°C° 0 mm 2 mps 749 mmHg 93%
    16:00 -21°C° 0 mm 2 mps 748 mmHg 95%
    17:00 -23°C° 0 mm 2 mps 748 mmHg 96%
    18:00 -23°C° 0 mm 2 mps 748 mmHg 97%
    19:00 -24°C° 0 mm 2 mps 748 mmHg 98%
    20:00 -21°C° 0 mm 2 mps 748 mmHg 97%
    21:00 -20°C° 0 mm 2 mps 748 mmHg 96%
    22:00 -18°C° 0 mm 2 mps 748 mmHg 95%
    23:00 -18°C° 0 mm 3 mps 747 mmHg 94%

    13 December, Friday

    Time Temperature Precipitation Wind Pressure Humidity
    00:00 -17°C° 0 mm 3 mps 747 mmHg 93%
    01:00 -16°C° 0 mm 3 mps 746 mmHg 92%
    02:00 -15°C° 0 mm 3 mps 745 mmHg 90%
    03:00 -16°C° 0 mm 4 mps 745 mmHg 89%
    04:00 -15°C° 0 mm 4 mps 744 mmHg 88%
    05:00 -15°C° 0.3 mm 4 mps 743 mmHg 90%
    06:00 -14°C° 0.3 mm 5 mps 743 mmHg 91%
    07:00 -14°C° 0.3 mm 5 mps 742 mmHg 93%
    08:00 -13°C° 0.3 mm 5 mps 742 mmHg 91%
    09:00 -13°C° 0.3 mm 5 mps 741 mmHg 89%
    10:00 -12°C° 0.3 mm 5 mps 741 mmHg 87%
    11:00 -12°C° 0.1 mm 5 mps 740 mmHg 88%
    12:00 -11°C° 0.1 mm 5 mps 740 mmHg 89%
    13:00 -10°C° 0.1 mm 5 mps 739 mmHg 91%
    14:00 -9°C° 0.1 mm 4 mps 739 mmHg 90%
    15:00 -9°C° 0.1 mm 4 mps 738 mmHg 89%
    16:00 -9°C° 0.1 mm 4 mps 738 mmHg 89%
    17:00 -9°C° 0 mm 4 mps 738 mmHg 89%
    18:00 -9°C° 0 mm 4 mps 737 mmHg 90%
    19:00 -9°C° 0 mm 4 mps 737 mmHg 90%
    20:00 -10°C° 0 mm 4 mps 737 mmHg 91%
    21:00 -9°C° 0 mm 3 mps 737 mmHg 91%
    22:00 -9°C° 0 mm 3 mps 736 mmHg 91%
    23:00 -9°C° 0 mm 3 mps 736 mmHg 92%
    Show more